Main page
METAR-TAF:

METAR-TAF

Airports :

Alpine, Texas, United States

Alpine–Casparis Municipal Airport

latitude: 30-23-03N, longitude: 103-41-00W, elevation: 1376 m

Current weather observation

The report was made 19 minutes ago, at 08:55 UTC
Wind 8 kt from the West/Southwest
Temperature 13°C
Humidity 24%
Pressure 1015 hPa
Visibility: 16.1 km
Clear sky

METAR: KE38 260855Z AUTO 24008KT 10SM CLR 13/M07 A2996 RMK AO2 T01281070

Time: 04:14 (09:14 UTC)


TAF: missing

Weather observations and forecasts of more than 4000 airports (METAR and TAF reports).

The available stations are represented by yellow and red dots on the map.

Hover mouse over dot to see the name of the station.

Then click to see weather observations and forecasts.

To change the map : click on the green buttons with a black cross to zoom in, on the green button with a dash to zoom out, or on the green arrows for adjacent maps.


METAR-TAF: